AFL3110 NZWN-NZAA

Flight info

Callsign AFL3110
Flight time 1h 4m
Altitude 29000
Route KAMET H467 FOXTN H313 OH H182 ARETI Y539 PARRA Y505 TG H117 DODKU
Aircraft B77W/H-SDE1E2E3FGHIJ2J3J4J5M1RWXY/LB1D1

Departure

Time 2026-05-06 21:29
Airport Wellington International Airport (NZWN)

Arrival

Time 2026-05-06 22:34
Airport Auckland International Airport (NZAA)
Time Latitude Longitude Altitude Speed Heading
2026-05-06 21:15 -41.32771 174.80910 27 ft 0 kts 37°
2026-05-06 21:20 -41.32764 174.80913 27 ft 4 kts 18°
2026-05-06 21:20 -41.32739 174.80908 26 ft 4 kts 341°
2026-05-06 21:20 -41.32722 174.80883 24 ft 4 kts 294°
2026-05-06 21:20 -41.32722 174.80848 27 ft 4 kts 253°
2026-05-06 21:21 -41.32743 174.80821 24 ft 4 kts 211°
2026-05-06 21:21 -41.32772 174.80813 25 ft 4 kts 184°
2026-05-06 21:21 -41.32803 174.80810 22 ft 4 kts 184°
2026-05-06 21:21 -41.32834 174.80808 23 ft 4 kts 183°
2026-05-06 21:22 -41.32864 174.80806 22 ft 4 kts 183°
2026-05-06 21:22 -41.32895 174.80803 26 ft 4 kts 183°
2026-05-06 21:22 -41.32953 174.80800 25 ft 11 kts 182°
2026-05-06 21:22 -41.33027 174.80796 27 ft 11 kts 182°
2026-05-06 21:23 -41.33101 174.80792 25 ft 11 kts 182°
2026-05-06 21:23 -41.33174 174.80787 23 ft 11 kts 183°
2026-05-06 21:23 -41.33248 174.80783 26 ft 11 kts 182°
2026-05-06 21:23 -41.33322 174.80778 23 ft 11 kts 182°
2026-05-06 21:24 -41.33395 174.80774 23 ft 11 kts 182°
2026-05-06 21:24 -41.33468 174.80770 23 ft 10 kts 184°
2026-05-06 21:24 -41.33518 174.80704 18 ft 11 kts 240°
2026-05-06 21:24 -41.33511 174.80642 17 ft 6 kts 337°
2026-05-06 21:25 -41.33469 174.80639 18 ft 0 kts
2026-05-06 21:29 -41.33152 174.80657 22 ft 103 kts
2026-05-06 21:29 -41.32249 174.80730 61 ft 143 kts
2026-05-06 21:29 -41.31238 174.80807 465 ft 145 kts
2026-05-06 21:29 -41.30068 174.80870 1297 ft 191 kts
2026-05-06 21:30 -41.28744 174.80960 3320 ft 176 kts 360°
2026-05-06 21:30 -41.27570 174.81079 4816 ft 169 kts 352°
2026-05-06 21:30 -41.26356 174.80696 5289 ft 195 kts 334°
2026-05-06 21:30 -41.24974 174.80040 5685 ft 228 kts 342°
2026-05-06 21:31 -41.23380 174.79511 6737 ft 237 kts 343°
2026-05-06 21:31 -41.21767 174.78979 7786 ft 240 kts 343°
2026-05-06 21:31 -41.20154 174.78430 8994 ft 245 kts 343°
2026-05-06 21:31 -41.18489 174.77858 10194 ft 249 kts 343°
2026-05-06 21:32 -41.16763 174.77259 11000 ft 268 kts 343°
2026-05-06 21:32 -41.12663 174.77760 11496 ft 344 kts 21°
2026-05-06 21:32 -41.10490 174.79358 12152 ft 365 kts 25°
2026-05-06 21:33 -41.08259 174.81058 13136 ft 375 kts 25°
2026-05-06 21:33 -41.05978 174.82800 14190 ft 383 kts 26°
2026-05-06 21:33 -41.03644 174.84575 15190 ft 389 kts 26°
2026-05-06 21:33 -41.01277 174.86365 16221 ft 395 kts 25°
2026-05-06 21:34 -40.98871 174.88175 17270 ft 400 kts 25°
2026-05-06 21:34 -40.96427 174.90006 18227 ft 408 kts 25°
2026-05-06 21:34 -40.93935 174.91865 19056 ft 416 kts 25°
2026-05-06 21:34 -40.91394 174.93761 19910 ft 422 kts 26°
2026-05-06 21:35 -40.88824 174.95679 20790 ft 427 kts 26°
2026-05-06 21:35 -40.86217 174.97620 21644 ft 432 kts 26°
2026-05-06 21:35 -40.83580 174.99579 22451 ft 438 kts 26°
2026-05-06 21:35 -40.80896 175.01570 23244 ft 445 kts 26°
2026-05-06 21:36 -40.78177 175.03585 23967 ft 451 kts 26°
2026-05-06 21:36 -40.75462 175.05596 24616 ft 456 kts 26°
2026-05-06 21:36 -40.72685 175.07651 25344 ft 459 kts 26°
2026-05-06 21:36 -40.69890 175.09717 25992 ft 464 kts 26°
2026-05-06 21:37 -40.67051 175.11799 26597 ft 469 kts 25°
2026-05-06 21:37 -40.64116 175.13695 27183 ft 472 kts 20°
2026-05-06 21:37 -40.61074 175.15402 27777 ft 476 kts 19°
2026-05-06 21:37 -40.58003 175.17089 28361 ft 481 kts 20°
2026-05-06 21:38 -40.54921 175.18828 29044 ft 482 kts 20°
2026-05-06 21:38 -40.51829 175.20603 29280 ft 487 kts 20°
2026-05-06 21:38 -40.45681 175.24223 29269 ft 480 kts 21°
2026-05-06 21:39 -40.39658 175.27909 29277 ft 481 kts 22°
2026-05-06 21:39 -40.33576 175.31612 29263 ft 482 kts 21°
2026-05-06 21:40 -40.27467 175.35302 29271 ft 483 kts 21°
2026-05-06 21:40 -40.21177 175.38279 29260 ft 478 kts
2026-05-06 21:41 -40.14610 175.38988 29261 ft 471 kts 354°
2026-05-06 21:41 -40.08074 175.38502 29276 ft 471 kts 354°
2026-05-06 21:42 -40.01523 175.38064 29278 ft 471 kts 354°
2026-05-06 21:42 -39.95015 175.37685 29277 ft 471 kts 354°
2026-05-06 21:43 -39.88464 175.37311 29286 ft 471 kts 355°
2026-05-06 21:43 -39.81907 175.36927 29284 ft 471 kts 354°
2026-05-06 21:44 -39.75350 175.36510 29277 ft 472 kts 354°
2026-05-06 21:44 -39.68791 175.36090 29268 ft 472 kts 354°
2026-05-06 21:45 -39.62220 175.35675 29287 ft 472 kts 354°
2026-05-06 21:45 -39.55686 175.35264 29289 ft 473 kts 354°
2026-05-06 21:46 -39.49108 175.34852 29291 ft 473 kts 354°
2026-05-06 21:46 -39.42536 175.34443 29287 ft 471 kts 355°
2026-05-06 21:47 -39.36010 175.35618 29314 ft 479 kts 15°
2026-05-06 21:47 -39.29989 175.39437 29326 ft 485 kts 29°
2026-05-06 21:48 -39.24253 175.44072 29300 ft 487 kts 28°
2026-05-06 21:48 -39.18528 175.48644 29326 ft 487 kts 28°
2026-05-06 21:49 -39.12701 175.53223 29330 ft 488 kts 29°
2026-05-06 21:49 -39.06931 175.57712 29329 ft 487 kts 28°
2026-05-06 21:50 -39.01123 175.62223 29330 ft 487 kts 29°
2026-05-06 21:50 -38.95329 175.66726 29339 ft 486 kts 29°
2026-05-06 21:51 -38.89539 175.71217 29329 ft 485 kts 29°
2026-05-06 21:51 -38.83792 175.75662 29344 ft 485 kts 29°
2026-05-06 21:52 -38.78018 175.80121 29346 ft 485 kts 29°
2026-05-06 21:52 -38.72227 175.84585 29343 ft 485 kts 29°
2026-05-06 21:53 -38.66214 175.88427 29349 ft 483 kts 19°
2026-05-06 21:53 -38.59778 175.90795 29358 ft 481 kts 11°
2026-05-06 21:54 -38.53262 175.92759 29347 ft 482 kts 11°
2026-05-06 21:54 -38.46736 175.94763 29348 ft 482 kts 12°
2026-05-06 21:55 -38.40210 175.96796 29349 ft 482 kts 12°
2026-05-06 21:55 -38.33686 175.98831 29348 ft 482 kts 12°
2026-05-06 21:56 -38.27206 176.00847 29349 ft 482 kts 12°
2026-05-06 21:56 -38.20677 176.02874 29348 ft 482 kts 12°
2026-05-06 21:57 -38.14162 176.04892 29351 ft 482 kts 12°
2026-05-06 21:57 -38.07648 176.06906 29347 ft 482 kts 11°
2026-05-06 21:58 -38.02227 176.08578 29356 ft 482 kts 12°
2026-05-06 21:58 -37.95704 176.10590 29347 ft 482 kts 12°
2026-05-06 21:59 -37.89181 176.12593 29349 ft 483 kts 11°
2026-05-06 21:59 -37.82633 176.14588 29349 ft 483 kts 12°
2026-05-06 22:00 -37.76095 176.16578 29352 ft 482 kts 11°
2026-05-06 22:00 -37.72805 176.17155 29338 ft 477 kts 357°
2026-05-06 22:00 -37.69555 176.16489 29357 ft 473 kts 339°
2026-05-06 22:01 -37.66649 176.14699 29361 ft 471 kts 325°
2026-05-06 22:01 -37.64092 176.12132 29335 ft 470 kts 313°
2026-05-06 22:01 -37.62084 176.08911 29350 ft 466 kts 302°
2026-05-06 22:01 -37.60309 176.05477 29354 ft 468 kts 302°
2026-05-06 22:02 -37.56739 175.98572 29345 ft 470 kts 302°
2026-05-06 22:02 -37.53076 175.91715 29346 ft 471 kts 303°
2026-05-06 22:03 -37.49382 175.84894 28948 ft 472 kts 303°
2026-05-06 22:03 -37.47531 175.81474 28319 ft 468 kts 303°
2026-05-06 22:03 -37.46019 175.77893 27629 ft 460 kts 290°
2026-05-06 22:04 -37.45279 175.73923 26943 ft 478 kts 277°
2026-05-06 22:04 -37.45203 175.69658 26322 ft 497 kts 265°
2026-05-06 22:04 -37.45790 175.65392 25890 ft 502 kts 259°
2026-05-06 22:04 -37.46503 175.61239 25664 ft 470 kts 259°
2026-05-06 22:05 -37.47183 175.57307 25011 ft 452 kts 259°
2026-05-06 22:05 -37.47833 175.53430 24702 ft 457 kts 260°
2026-05-06 22:05 -37.48472 175.49485 24720 ft 464 kts 260°
2026-05-06 22:05 -37.49105 175.45468 24720 ft 470 kts 260°
2026-05-06 22:06 -37.49736 175.41402 24717 ft 477 kts 261°
2026-05-06 22:06 -37.50371 175.37277 24725 ft 482 kts 261°
2026-05-06 22:06 -37.51007 175.33117 24726 ft 486 kts 261°
2026-05-06 22:06 -37.51648 175.28922 24730 ft 490 kts 261°
2026-05-06 22:07 -37.52288 175.24728 24880 ft 478 kts 261°
2026-05-06 22:07 -37.52909 175.20665 24806 ft 467 kts 261°
2026-05-06 22:07 -37.53515 175.16682 24676 ft 459 kts 261°
2026-05-06 22:07 -37.54112 175.12748 24530 ft 453 kts 261°
2026-05-06 22:08 -37.54688 175.08939 24449 ft 445 kts 261°
2026-05-06 22:08 -37.55263 175.05127 24376 ft 439 kts 261°
2026-05-06 22:08 -37.55831 175.01356 24238 ft 436 kts 261°
2026-05-06 22:08 -37.56395 174.97599 24001 ft 436 kts 261°
2026-05-06 22:09 -37.56957 174.93839 23744 ft 436 kts 262°
2026-05-06 22:09 -37.57113 174.90058 23558 ft 429 kts 279°
2026-05-06 22:09 -37.56309 174.86494 23543 ft 421 kts 296°
2026-05-06 22:09 -37.54761 174.83412 23517 ft 415 kts 310°
2026-05-06 22:10 -37.52693 174.80971 23495 ft 411 kts 323°
2026-05-06 22:10 -37.50262 174.79101 23471 ft 409 kts 335°
2026-05-06 22:10 -37.47537 174.78130 23438 ft 407 kts 349°
2026-05-06 22:10 -37.44748 174.77595 23425 ft 405 kts 349°
2026-05-06 22:11 -37.41978 174.76991 23410 ft 403 kts 348°
2026-05-06 22:11 -37.39220 174.76350 23394 ft 401 kts 348°
2026-05-06 22:11 -37.36484 174.75703 23366 ft 399 kts 348°
2026-05-06 22:11 -37.33755 174.75057 23349 ft 398 kts 348°
2026-05-06 22:12 -37.31036 174.74415 23340 ft 397 kts 348°
2026-05-06 22:12 -37.28327 174.73777 23327 ft 395 kts 348°
2026-05-06 22:12 -37.25629 174.73144 23316 ft 394 kts 348°
2026-05-06 22:12 -37.22940 174.72499 23305 ft 393 kts 345°
2026-05-06 22:13 -37.20424 174.71236 23274 ft 389 kts 327°
2026-05-06 22:13 -37.18379 174.69045 23274 ft 387 kts 312°
2026-05-06 22:13 -37.16664 174.66494 23290 ft 386 kts 310°
2026-05-06 22:13 -37.14947 174.63920 23281 ft 385 kts 310°
2026-05-06 22:14 -37.13227 174.61372 23193 ft 374 kts 310°
2026-05-06 22:14 -37.11573 174.58936 22694 ft 360 kts 310°
2026-05-06 22:14 -37.09872 174.56714 22159 ft 348 kts 324°
2026-05-06 22:14 -37.07697 174.55544 21653 ft 340 kts 351°
2026-05-06 22:15 -37.05382 174.55819 21170 ft 336 kts 18°
2026-05-06 22:15 -37.03476 174.57458 20691 ft 336 kts 47°
2026-05-06 22:15 -37.02444 174.60046 20213 ft 335 kts 77°
2026-05-06 22:15 -37.02530 174.62924 19756 ft 331 kts 104°
2026-05-06 22:16 -37.03189 174.65657 19336 ft 324 kts 103°
2026-05-06 22:16 -37.03476 174.68375 18875 ft 316 kts 86°
2026-05-06 22:16 -37.03190 174.71066 18422 ft 308 kts 73°
2026-05-06 22:16 -37.02605 174.73616 17927 ft 302 kts 69°
2026-05-06 22:17 -37.01937 174.76085 17436 ft 297 kts 68°
2026-05-06 22:17 -37.01259 174.78509 16962 ft 294 kts 67°
2026-05-06 22:17 -37.00588 174.80908 16488 ft 291 kts 67°
2026-05-06 22:17 -36.99925 174.83284 16008 ft 288 kts 67°
2026-05-06 22:18 -36.99268 174.85636 15560 ft 284 kts 67°
2026-05-06 22:18 -36.98622 174.87960 15099 ft 282 kts 67°
2026-05-06 22:18 -36.97983 174.90262 14659 ft 279 kts 67°
2026-05-06 22:18 -36.97350 174.92550 14213 ft 276 kts 67°
2026-05-06 22:19 -36.96729 174.94812 13728 ft 274 kts 67°
2026-05-06 22:19 -36.96115 174.97061 13243 ft 272 kts 67°
2026-05-06 22:19 -36.95510 174.99288 12760 ft 269 kts 67°
2026-05-06 22:19 -36.94913 175.01498 12295 ft 267 kts 67°
2026-05-06 22:20 -36.94327 175.03672 11850 ft 265 kts 67°
2026-05-06 22:20 -36.93706 175.05831 11360 ft 261 kts 59°
2026-05-06 22:20 -36.92580 175.07518 10873 ft 248 kts 29°
2026-05-06 22:20 -36.91008 175.08214 10436 ft 237 kts
2026-05-06 22:21 -36.89436 175.07794 9961 ft 232 kts 330°
2026-05-06 22:21 -36.88297 175.06402 9468 ft 233 kts 300°
2026-05-06 22:21 -36.87921 175.04438 8977 ft 239 kts 270°
2026-05-06 22:21 -36.88344 175.02418 8523 ft 243 kts 252°
2026-05-06 22:22 -36.88980 175.00464 8058 ft 243 kts 251°
2026-05-06 22:22 -36.89630 174.98510 7590 ft 244 kts 251°
2026-05-06 22:22 -36.90281 174.96555 7128 ft 243 kts 251°
2026-05-06 22:22 -36.90931 174.94603 6702 ft 249 kts 251°
2026-05-06 22:23 -36.91600 174.92576 6246 ft 256 kts 251°
2026-05-06 22:23 -36.92282 174.90487 5764 ft 262 kts 252°
2026-05-06 22:23 -36.92879 174.88314 5313 ft 267 kts 256°
2026-05-06 22:23 -36.93439 174.86100 5032 ft 264 kts 256°
2026-05-06 22:24 -36.93980 174.83963 4979 ft 251 kts 256°
2026-05-06 22:24 -36.94503 174.81927 4924 ft 240 kts 256°
2026-05-06 22:24 -36.95002 174.79998 4861 ft 227 kts 257°
2026-05-06 22:24 -36.95484 174.78166 4780 ft 216 kts 256°
2026-05-06 22:25 -36.95952 174.76406 4741 ft 211 kts 256°
2026-05-06 22:25 -36.96418 174.74658 4693 ft 212 kts 256°
2026-05-06 22:25 -36.96876 174.72920 4699 ft 214 kts 256°
2026-05-06 22:25 -36.97348 174.71140 4670 ft 216 kts 256°
2026-05-06 22:26 -36.97824 174.69355 4647 ft 217 kts 256°
2026-05-06 22:26 -36.98296 174.67560 4622 ft 217 kts 256°
2026-05-06 22:26 -36.98769 174.65771 4616 ft 214 kts 257°
2026-05-06 22:26 -36.99225 174.64014 4573 ft 210 kts 260°
2026-05-06 22:27 -36.99536 174.62238 4519 ft 208 kts 264°
2026-05-06 22:27 -36.99825 174.60451 4417 ft 211 kts 264°
2026-05-06 22:27 -37.00109 174.58639 4297 ft 213 kts 264°
2026-05-06 22:27 -37.00397 174.56843 4302 ft 208 kts 264°
2026-05-06 22:28 -37.00679 174.55078 4194 ft 205 kts 264°
2026-05-06 22:28 -37.01273 174.53484 3878 ft 206 kts 228°
2026-05-06 22:28 -37.02536 174.52662 3846 ft 214 kts 188°
2026-05-06 22:28 -37.03970 174.52880 3798 ft 203 kts 151°
2026-05-06 22:29 -37.05016 174.53900 3642 ft 190 kts 129°
2026-05-06 22:29 -37.05781 174.55209 3534 ft 183 kts 103°
2026-05-06 22:29 -37.06052 174.56725 3394 ft 178 kts 92°
2026-05-06 22:29 -37.06278 174.58275 3177 ft 180 kts 91°
2026-05-06 22:30 -37.06193 174.59730 3052 ft 164 kts 70°
2026-05-06 22:30 -37.05951 174.61083 2990 ft 148 kts 68°
2026-05-06 22:30 -37.05686 174.62242 3003 ft 132 kts 65°
2026-05-06 22:30 -37.05411 174.63319 3006 ft 129 kts 64°
2026-05-06 22:31 -37.05107 174.64391 2835 ft 130 kts 63°
2026-05-06 22:31 -37.04800 174.65465 2619 ft 132 kts 63°
2026-05-06 22:31 -37.04506 174.66565 2338 ft 132 kts 64°
2026-05-06 22:31 -37.04203 174.67625 1943 ft 129 kts 63°
2026-05-06 22:32 -37.03908 174.68700 1530 ft 131 kts 66°
2026-05-06 22:32 -37.03636 174.69776 1179 ft 125 kts 64°
2026-05-06 22:32 -37.03366 174.70777 1010 ft 124 kts 62°
2026-05-06 22:32 -37.03041 174.71793 898 ft 125 kts 63°
2026-05-06 22:33 -37.02750 174.72839 740 ft 131 kts 70°
2026-05-06 22:33 -37.02514 174.73944 575 ft 127 kts 67°
2026-05-06 22:33 -37.02201 174.74976 365 ft 128 kts 69°
2026-05-06 22:33 -37.01930 174.76013 206 ft 125 kts 67°
2026-05-06 22:34 -37.01642 174.77042 58 ft 127 kts 68°
2026-05-06 22:34 -37.01367 174.78019 28 ft 100 kts 72°
2026-05-06 22:34 -37.01203 174.78619 28 ft 46 kts 72°
2026-05-06 22:34 -37.01115 174.78898 29 ft 30 kts 51°
2026-05-06 22:35 -37.00993 174.79036 28 ft 0 kts 41°
2026-05-06 22:35 -37.00990 174.79039 30 ft 1 kts 41°
2026-05-06 22:35 -37.00968 174.79063 30 ft 11 kts 40°
2026-05-06 22:35 -37.00915 174.79089 30 ft 8 kts 345°
2026-05-06 22:36 -37.00903 174.79038 30 ft 8 kts 264°
2026-05-06 22:36 -37.00920 174.78955 29 ft 0 kts 252°
2026-05-06 22:37 -37.00926 174.78932 28 ft 11 kts 252°
2026-05-06 22:37 -37.00954 174.78824 29 ft 13 kts 251°
2026-05-06 22:38 -37.00985 174.78715 32 ft 13 kts 250°
2026-05-06 22:38 -37.01016 174.78604 32 ft 14 kts 251°
2026-05-06 22:38 -37.01045 174.78499 31 ft 0 kts 251°
2026-05-06 22:39 -37.01045 174.78496 31 ft 3 kts 251°
2026-05-06 22:39 -37.01039 174.78422 31 ft 12 kts 296°
2026-05-06 22:39 -37.00996 174.78326 31 ft 13 kts 291°
2026-05-06 22:39 -37.00964 174.78222 32 ft 13 kts 302°
2026-05-06 22:40 -37.00912 174.78118 30 ft 15 kts 302°
2026-05-06 22:40 -37.00838 174.78026 29 ft 15 kts 334°
2026-05-06 22:40 -37.00734 174.78014 30 ft 16 kts 17°
2026-05-06 22:40 -37.00658 174.78074 29 ft 0 kts 50°
2026-05-06 22:41 -37.00655 174.78079 29 ft 6 kts 50°
2026-05-06 22:41 -37.00655 174.78137 29 ft 8 kts 117°
2026-05-06 22:41 -37.00664 174.78158 30 ft 0 kts 119°